Location: Boullarre
(49.1305°N, 3.0047°E)
Time: 21:02:42
(UTC+00:00)

ISS - Pass Details

Date: 20 September 2024
Orbit: 411 x 423 km, 51.6° (Epoch: 14 October)

Event Time Altitude Azimuth Distance (km) Brightness Sun altitude
Rises 20:11:51 0° 286° (WNW) 2,373 1.4 -23.0°
Reaches altitude 10° 20:13:57 10° 289° (WNW) 1,511 0.1 -23.3°
Enters shadow 20:16:27 44° 308° (NW) 599 -2.6 -23.7°
